This demonstration page uses our WeatherBlox Daily Observations layout. Learn more.

Left ArrowRight Arrow

39.29038, -76.61219

Hourly Observations for May 2, 2021

Temp ( °F °C ) Dew Point ( °F °C ) Humidity (%) Winds ( mph kmh ) Pressure ( in mb ) Visibility ( mi km ) Precip ( " mm )
12:54 am 00:54 Mostly Clear 55 12.8 31 -0.6 40 40 N N/A 29.88 1012 10 16 N/A
1:54 am 01:54 Mostly Clear 54 12.2 33 0.6 45 45 W 3 6 29.88 1012 10 16 N/A
2:54 am 02:54 Mostly Cloudy 57 13.9 35 1.7 44 44 SW 6 9 29.86 1011 10 16 N/A
3:54 am 03:54 Mostly Cloudy 59 15 34 1.1 39 39 SW 8 13 29.85 1011 10 16 N/A
4:54 am 04:54 Partly Cloudy 58 14.4 35 1.7 42 42 SW 10 17 29.83 1010 10 16 N/A
5:54 am 05:54 Partly Cloudy 57 13.9 36 2.2 45 45 WSW 7 11 29.84 1010 10 16 N/A
6:54 am 06:54 Mostly Cloudy 56 13.3 37 2.8 49 49 WSW 6 9 29.85 1011 10 16 N/A
7:54 am 07:54 Mostly Cloudy 60 15.6 38 3.3 44 44 SW 8 13 29.86 1011 10 16 N/A
8:54 am 08:54 Mostly Cloudy 65 18.3 40 4.4 40 40 WSW 8 13 29.86 1011 10 16 N/A
9:54 am 09:54 Mostly Cloudy 72 22.2 41 5 33 33 SW 12 19 29.85 1011 10 16 N/A
10:54 am 10:54 Mostly Cloudy 78 25.6 43 6.1 29 29 WSW 12 19 29.83 1010 10 16 N/A
11:54 am 11:54 Mostly Cloudy 81 27.2 45 7.2 28 28 SSW 12 19 29.82 1010 10 16 N/A
12:54 pm 12:54 Mostly Cloudy 82 27.8 46 7.8 28 28 WSW 14 22 29.81 1010 10 16 N/A
1:54 pm 13:54 Mostly Cloudy 84 28.9 45 7.2 25 25 WSW 13 20 29.80 1009 10 16 N/A
2:54 pm 14:54 Mostly Cloudy 85 29.4 47 8.3 27 27 S 12 19 29.79 1009 10 16 N/A
3:54 pm 15:54 Mostly Cloudy 87 30.6 46 7.8 24 24 SSW 15 24 29.77 1008 10 16 N/A
4:54 pm 16:54 Mostly Cloudy 87 30.6 46 7.8 24 24 SSW 14 22 29.76 1008 10 16 N/A
5:54 pm 17:54 Mostly Cloudy 84 28.9 45 7.2 25 25 SW 12 19 29.75 1008 10 16 N/A
6:54 pm 18:54 Mostly Cloudy 83 28.3 45 7.2 26 26 SSW 10 17 29.75 1007 10 16 N/A
7:54 pm 19:54 Mostly Cloudy 80 26.7 46 7.8 30 30 SSW 8 13 29.76 1008 10 16 N/A
8:54 pm 20:54 Mostly Cloudy 77 25 46 7.8 33 33 S 6 9 29.78 1008 10 16 N/A
9:54 pm 21:54 Mostly Cloudy 75 23.9 46 7.8 36 36 SSW 5 7 29.79 1009 10 16 N/A
10:54 pm 22:54 Mostly Cloudy 73 22.8 46 7.8 38 38 SW 6 9 29.79 1009 10 16 N/A
11:54 pm 23:54 Mostly Cloudy 72 22.2 47 8.3 41 41 SW 6 9 29.80 1009 10 16 N/A

Powered by AerisWeather